| time (UTC) | temp F | wind direction | speed MPH | gust MPH | rain 1hr in | rain 24hr in | rain mn in | humidity % | barometer mb |
| 20260508074515 | 68 | 7 | 5.0 | 8.0 | 0.00 | 0.00 | 0.00 | 90 | 1012.5 |
| 20260508074015 | 69 | 2 | 3.0 | 7.0 | 0.00 | 0.00 | 0.00 | 90 | 1012.6 |
| 20260508073514 | 69 | 6 | 3.0 | 8.0 | 0.00 | 0.00 | 0.00 | 90 | 1012.7 |
| 20260508073015 | 69 | 349 | 5.0 | 7.0 | 0.00 | 0.00 | 0.00 | 91 | 1012.8 |
| 20260508072514 | 69 | 358 | 5.0 | 7.0 | 0.00 | 0.00 | 0.00 | 90 | 1012.8 |
| 20260508072017 | 70 | 4 | 6.0 | 7.0 | 0.00 | 0.00 | 0.00 | 90 | 1012.8 |
| 20260508071515 | 71 | 0 | 5.0 | 7.0 | 0.00 | 0.00 | 0.00 | 90 | 1012.7 |
| 20260508071015 | 71 | 22 | 4.0 | 7.0 | 0.00 | 0.00 | 0.00 | 89 | 1012.5 |
| 20260508070514 | 71 | 30 | 4.0 | 7.0 | 0.00 | 0.00 | 0.00 | 88 | 1012.6 |
| 20260508070014 | 71 | 31 | 5.0 | 7.0 | 0.00 | 0.00 | 0.00 | 88 | 1012.7 |
| 20260508065514 | 72 | 24 | 5.0 | 7.0 | 0.00 | 0.00 | 0.00 | 87 | 1012.7 |
| 20260508065014 | 72 | 22 | 5.0 | 7.0 | 0.00 | 0.00 | 0.00 | 86 | 1012.9 |
| 20260508064515 | 72 | 18 | 5.0 | 7.0 | 0.00 | 0.00 | 0.00 | 86 | 1012.8 |
| 20260508064015 | 72 | 23 | 4.0 | 6.0 | 0.00 | 0.00 | 0.00 | 86 | 1013.0 |
| 20260508063516 | 72 | 10 | 5.0 | 6.0 | 0.00 | 0.00 | 0.00 | 86 | 1013.0 |
| 20260508062515 | 72 | 28 | 5.0 | 8.0 | 0.00 | 0.00 | 0.00 | 86 | 1012.7 |
| 20260508062015 | 71 | 29 | 6.0 | 9.0 | 0.00 | 0.00 | 0.00 | 86 | 1012.5 |
| 20260508061515 | 71 | 17 | 5.0 | 8.0 | 0.00 | 0.00 | 0.00 | 86 | 1012.6 |
| 20260508061015 | 72 | 3 | 5.0 | 7.0 | 0.00 | 0.00 | 0.00 | 86 | 1012.7 |
| 20260508060516 | 72 | 10 | 5.0 | 7.0 | 0.00 | 0.00 | 0.00 | 85 | 1012.5 |
| 20260508060015 | 72 | 20 | 3.0 | 6.0 | 0.00 | 0.00 | 0.00 | 85 | 1012.5 |
| 20260508055514 | 72 | 12 | 5.0 | 6.0 | 0.00 | 0.00 | 0.00 | 85 | 1012.5 |
| 20260508055015 | 72 | 22 | 3.0 | 5.0 | 0.00 | 0.00 | 0.00 | 84 | 1012.6 |
| 20260508054015 | 72 | 5 | 3.0 | 5.0 | 0.00 | 0.00 | 0.00 | 84 | 1012.8 |
| 20260508053514 | 72 | 4 | 3.0 | 5.0 | 0.00 | 0.00 | 0.00 | 84 | 1012.8 |
| 20260508053015 | 72 | 10 | 5.0 | 7.0 | 0.00 | 0.00 | 0.00 | 84 | 1012.8 |
| 20260508052515 | 72 | 13 | 4.0 | 6.0 | 0.00 | 0.00 | 0.00 | 84 | 1012.9 |
| 20260508052015 | 72 | 17 | 4.0 | 5.0 | 0.00 | 0.00 | 0.00 | 84 | 1013.1 |
| 20260508051519 | 72 | 12 | 3.0 | 3.0 | 0.00 | 0.00 | 0.00 | 84 | 1013.1 |
| 20260508051015 | 72 | 20 | 1.0 | 2.0 | 0.00 | 0.00 | 0.00 | 84 | 1013.2 |
| 20260508050515 | 72 | 25 | 1.0 | 2.0 | 0.00 | 0.00 | 0.00 | 84 | 1013.4 |
| 20260508045015 | 72 | 236 | 2.0 | 2.0 | 0.00 | 0.00 | 0.00 | 83 | 1013.6 |
| 20260508044014 | 72 | 221 | 1.0 | 2.0 | 0.00 | 0.00 | 0.00 | 83 | 1013.5 |
| 20260508043517 | 72 | 182 | 0.0 | 2.0 | 0.00 | 0.00 | 0.00 | 83 | 1013.2 |
| 20260508043014 | 72 | 152 | 2.0 | 3.0 | 0.00 | 0.00 | 0.00 | 83 | 1013.0 |
| 20260508042514 | 72 | 145 | 3.0 | 5.0 | 0.00 | 0.00 | 0.00 | 82 | 1012.9 |
| 20260508042015 | 72 | 87 | 2.0 | 3.0 | 0.00 | 0.00 | 0.00 | 82 | 1012.5 |
| 20260508041515 | 72 | 63 | 5.0 | 7.0 | 0.00 | 0.00 | 0.00 | 82 | 1012.3 |
| 20260508040514 | 72 | 89 | 6.0 | 8.0 | 0.00 | 0.00 | 0.00 | 82 | 1012.2 |
| 20260508040014 | 72 | 57 | 5.0 | 7.0 | 0.00 | 0.00 | 0.00 | 83 | 1012.0 |
| 20260508035514 | 72 | 75 | 5.0 | 8.0 | 0.00 | 0.00 | 0.00 | 83 | 1012.1 |
| 20260508035015 | 72 | 109 | 3.0 | 8.0 | 0.00 | 0.00 | 0.00 | 83 | 1012.1 |
| 20260508034513 | 72 | 114 | 5.0 | 9.0 | 0.00 | 0.00 | 0.00 | 83 | 1012.2 |
| 20260508033514 | 72 | 134 | 6.0 | 7.0 | 0.00 | 0.00 | 0.00 | 83 | 1012.4 |
| 20260508033014 | 72 | 116 | 5.0 | 7.0 | 0.00 | 0.00 | 0.00 | 83 | 1012.4 |
| 20260508032514 | 72 | 105 | 3.0 | 6.0 | 0.00 | 0.00 | 0.00 | 83 | 1012.5 |
| 20260508032015 | 72 | 114 | 5.0 | 8.0 | 0.00 | 0.00 | 0.00 | 83 | 1012.4 |
| 20260508031517 | 72 | 151 | 6.0 | 9.0 | 0.00 | 0.00 | 0.00 | 83 | 1012.5 |
| 20260508031015 | 72 | 144 | 2.0 | 6.0 | 0.00 | 0.00 | 0.00 | 84 | 1012.4 |
| 20260508030517 | 72 | 145 | 8.0 | 13.0 | 0.00 | 0.00 | 0.00 | 84 | 1011.9 |
| 20260508030014 | 72 | 146 | 9.0 | 15.0 | 0.00 | 0.00 | 0.00 | 84 | 1011.6 |
| 20260508025516 | 72 | 104 | 9.0 | 14.0 | 0.00 | 0.00 | 0.00 | 84 | 1011.0 |
| 20260508025015 | 72 | 110 | 7.0 | 10.0 | 0.00 | 0.00 | 0.00 | 84 | 1011.7 |
| 20260508024514 | 71 | 125 | 9.0 | 14.0 | 0.00 | 0.00 | 0.00 | 84 | 1011.6 |
| 20260508024015 | 71 | 117 | 13.0 | 18.0 | 0.00 | 0.00 | 0.00 | 85 | 1010.8 |
| 20260508023515 | 71 | 120 | 11.0 | 21.0 | 0.00 | 0.00 | 0.00 | 85 | 1011.0 |
| 20260508023014 | 71 | 92 | 12.0 | 18.0 | 0.00 | 0.00 | 0.00 | 85 | 1010.7 |
| 20260508022515 | 72 | 105 | 12.0 | 17.0 | 0.00 | 0.00 | 0.00 | 84 | 1011.0 |
| 20260508022014 | 72 | 106 | 10.0 | 15.0 | 0.00 | 0.00 | 0.00 | 82 | 1011.9 |
| 20260508021514 | 72 | 96 | 7.0 | 14.0 | 0.00 | 0.00 | 0.00 | 82 | 1012.3 |
| 20260508021014 | 73 | 128 | 5.0 | 8.0 | 0.00 | 0.00 | 0.00 | 81 | 1013.0 |
| 20260508020514 | 73 | 119 | 3.0 | 7.0 | 0.00 | 0.00 | 0.00 | 81 | 1013.0 |
| 20260508020014 | 73 | 125 | 4.0 | 9.0 | 0.00 | 0.00 | 0.00 | 80 | 1012.8 |
| 20260508015014 | 73 | 89 | 5.0 | 9.0 | 0.00 | 0.00 | 0.00 | 80 | 1012.4 |
| 20260508014514 | 72 | 68 | 9.0 | 13.0 | 0.00 | 0.00 | 0.00 | 79 | 1011.8 |
| 20260508014015 | 72 | 90 | 6.0 | 9.0 | 0.00 | 0.00 | 0.00 | 79 | 1012.0 |
| 20260508013515 | 72 | 75 | 6.0 | 8.0 | 0.00 | 0.00 | 0.00 | 79 | 1012.1 |
| 20260508013014 | 72 | 102 | 6.0 | 10.0 | 0.00 | 0.00 | 0.00 | 79 | 1012.3 |
| 20260508012515 | 72 | 108 | 3.0 | 6.0 | 0.00 | 0.00 | 0.00 | 79 | 1012.8 |
| 20260508012015 | 72 | 87 | 5.0 | 6.0 | 0.00 | 0.00 | 0.00 | 78 | 1012.8 |
| 20260508011514 | 73 | 56 | 2.0 | 3.0 | 0.00 | 0.00 | 0.00 | 78 | 1013.1 |
| 20260508011015 | 73 | 32 | 3.0 | 5.0 | 0.00 | 0.00 | 0.00 | 78 | 1013.1 |
| 20260508010515 | 73 | 14 | 2.0 | 5.0 | 0.00 | 0.00 | 0.00 | 78 | 1013.0 |
| 20260508010015 | 72 | 20 | 2.0 | 2.0 | 0.00 | 0.00 | 0.00 | 78 | 1013.0 |
| 20260508005514 | 72 | 37 | 0.0 | 2.0 | 0.00 | 0.00 | 0.00 | 78 | 1013.1 |
| 20260508005014 | 73 | 87 | 2.0 | 3.0 | 0.00 | 0.00 | 0.00 | 78 | 1012.7 |
| 20260508004514 | 72 | 50 | 1.0 | 3.0 | 0.00 | 0.00 | 0.00 | 78 | 1012.7 |
| 20260508004014 | 72 | 15 | 4.0 | 8.0 | 0.00 | 0.00 | 0.00 | 78 | 1012.6 |
| 20260508003514 | 72 | 34 | 5.0 | 7.0 | 0.00 | 0.00 | 0.00 | 78 | 1012.5 |
| 20260508003014 | 72 | 26 | 3.0 | 5.0 | 0.00 | 0.00 | 0.00 | 78 | 1012.6 |
| 20260508002515 | 72 | 71 | 5.0 | 8.0 | 0.00 | 0.00 | 0.00 | 78 | 1012.4 |
| 20260508002014 | 72 | 67 | 6.0 | 9.0 | 0.00 | 0.00 | 0.00 | 78 | 1012.1 |
| 20260508001514 | 72 | 67 | 6.0 | 8.0 | 0.00 | 0.00 | 0.00 | 78 | 1012.1 |
| 20260508000515 | 72 | 37 | 9.0 | 12.0 | 0.00 | 0.00 | 0.00 | 77 | 1012.0 |
| 20260508000014 | 72 | 32 | 7.0 | 10.0 | 0.00 | 0.00 | 0.00 | 77 | 1012.0 |
| 20260507235014 | 72 | 49 | 6.0 | 8.0 | 0.00 | 0.00 | 0.00 | 78 | 1012.1 |
| 20260507234514 | 72 | 37 | 9.0 | 10.0 | 0.00 | 0.00 | 0.00 | 77 | 1012.2 |
| 20260507234015 | 72 | 28 | 8.0 | 10.0 | 0.00 | 0.00 | 0.00 | 77 | 1012.3 |
| 20260507233515 | 72 | 33 | 8.0 | 13.0 | 0.00 | 0.00 | 0.00 | 77 | 1012.3 |
| 20260507233014 | 72 | 49 | 8.0 | 10.0 | 0.00 | 0.00 | 0.00 | 77 | 1012.3 |
| 20260507232014 | 72 | 34 | 7.0 | 10.0 | 0.00 | 0.00 | 0.00 | 77 | 1012.6 |
| 20260507231515 | 72 | 19 | 6.0 | 8.0 | 0.00 | 0.00 | 0.00 | 77 | 1012.7 |
| 20260507231015 | 72 | 22 | 7.0 | 8.0 | 0.00 | 0.00 | 0.00 | 76 | 1012.8 |
| 20260507230514 | 72 | 40 | 6.0 | 9.0 | 0.00 | 0.00 | 0.00 | 76 | 1012.8 |
| 20260507230013 | 72 | 25 | 10.0 | 13.0 | 0.00 | 0.00 | 0.00 | 76 | 1012.7 |
| 20260507225514 | 72 | 29 | 7.0 | 9.0 | 0.00 | 0.00 | 0.00 | 76 | 1012.7 |
| 20260507225015 | 73 | 52 | 7.0 | 12.0 | 0.00 | 0.00 | 0.00 | 75 | 1012.5 |
| 20260507224014 | 73 | 51 | 7.0 | 12.0 | 0.00 | 0.00 | 0.00 | 75 | 1012.3 |
| 20260507223016 | 73 | 65 | 7.0 | 10.0 | 0.00 | 0.00 | 0.00 | 75 | 1012.3 |
| 20260507222515 | 72 | 47 | 7.0 | 10.0 | 0.00 | 0.00 | 0.00 | 75 | 1012.4 |
| 20260507222014 | 72 | 42 | 6.0 | 10.0 | 0.00 | 0.00 | 0.00 | 75 | 1012.4 |
| 20260507221014 | 72 | 31 | 7.0 | 12.0 | 0.00 | 0.00 | 0.00 | 76 | 1012.5 |
| 20260507220515 | 72 | 15 | 8.0 | 10.0 | 0.00 | 0.00 | 0.00 | 76 | 1012.5 |
| 20260507220014 | 72 | 31 | 6.0 | 9.0 | 0.00 | 0.00 | 0.00 | 75 | 1012.4 |
| 20260507215514 | 72 | 47 | 5.0 | 9.0 | 0.00 | 0.00 | 0.00 | 76 | 1012.4 |
| 20260507213514 | 72 | 45 | 7.0 | 10.0 | 0.00 | 0.00 | 0.00 | 75 | 1012.1 |
| 20260507213014 | 72 | 54 | 7.0 | 12.0 | 0.00 | 0.00 | 0.00 | 76 | 1012.1 |
| 20260507211514 | 73 | 59 | 7.0 | 10.0 | 0.00 | 0.00 | 0.00 | 75 | 1011.9 |
| 20260507211015 | 72 | 52 | 6.0 | 9.0 | 0.00 | 0.00 | 0.00 | 74 | 1012.1 |
| 20260507210514 | 73 | 43 | 8.0 | 12.0 | 0.00 | 0.00 | 0.00 | 74 | 1012.1 |
| 20260507210013 | 73 | 73 | 8.0 | 12.0 | 0.00 | 0.00 | 0.00 | 75 | 1012.0 |
| 20260507205514 | 73 | 82 | 7.0 | 10.0 | 0.00 | 0.00 | 0.00 | 75 | 1012.0 |
| 20260507204514 | 73 | 41 | 7.0 | 12.0 | 0.00 | 0.00 | 0.00 | 74 | 1012.3 |
| 20260507204014 | 73 | 49 | 7.0 | 10.0 | 0.00 | 0.00 | 0.00 | 75 | 1012.3 |
| 20260507203514 | 72 | 70 | 7.0 | 10.0 | 0.00 | 0.00 | 0.00 | 76 | 1012.4 |
| 20260507203015 | 72 | 59 | 9.0 | 13.0 | 0.00 | 0.00 | 0.00 | 75 | 1012.5 |
| 20260507202514 | 72 | 26 | 8.0 | 13.0 | 0.00 | 0.00 | 0.00 | 75 | 1012.5 |
| 20260507202016 | 73 | 20 | 9.0 | 12.0 | 0.00 | 0.00 | 0.00 | 75 | 1012.6 |
| 20260507201514 | 73 | 17 | 8.0 | 13.0 | 0.00 | 0.00 | 0.00 | 74 | 1012.7 |
| 20260507201014 | 73 | 63 | 6.0 | 12.0 | 0.00 | 0.00 | 0.00 | 74 | 1012.6 |
| 20260507200016 | 73 | 73 | 9.0 | 13.0 | 0.00 | 0.00 | 0.00 | 75 | 1012.7 |
| 20260507195014 | 73 | 67 | 10.0 | 14.0 | 0.00 | 0.00 | 0.00 | 74 | 1012.8 |
| 20260507194514 | 73 | 71 | 9.0 | 15.0 | 0.00 | 0.00 | 0.00 | 75 | 1012.8 |
| 20260507194014 | 73 | 39 | 6.0 | 10.0 | 0.00 | 0.00 | 0.00 | 75 | 1012.9 |
| 20260507193514 | 72 | 66 | 9.0 | 13.0 | 0.00 | 0.00 | 0.00 | 76 | 1013.0 |
| 20260507193014 | 72 | 21 | 9.0 | 13.0 | 0.00 | 0.00 | 0.00 | 76 | 1013.2 |
| 20260507192515 | 72 | 38 | 7.0 | 10.0 | 0.00 | 0.00 | 0.00 | 75 | 1013.4 |
| 20260507192014 | 72 | 43 | 7.0 | 13.0 | 0.00 | 0.00 | 0.00 | 76 | 1013.4 |
| 20260507191514 | 72 | 25 | 8.0 | 10.0 | 0.00 | 0.00 | 0.00 | 75 | 1013.4 |
| 20260507191014 | 72 | 63 | 6.0 | 10.0 | 0.00 | 0.00 | 0.00 | 76 | 1013.5 |
| 20260507190514 | 71 | 60 | 7.0 | 12.0 | 0.00 | 0.00 | 0.00 | 76 | 1013.6 |
| 20260507185016 | 71 | 34 | 7.0 | 15.0 | 0.00 | 0.00 | 0.00 | 77 | 1013.9 |
| 20260507184513 | 71 | 38 | 9.0 | 14.0 | 0.00 | 0.00 | 0.00 | 78 | 1014.0 |
| 20260507184016 | 71 | 17 | 10.0 | 15.0 | 0.00 | 0.00 | 0.00 | 77 | 1014.0 |
| 20260507183514 | 71 | 29 | 9.0 | 13.0 | 0.00 | 0.00 | 0.00 | 77 | 1014.2 |
| 20260507182513 | 71 | 42 | 8.0 | 13.0 | 0.00 | 0.00 | 0.00 | 78 | 1014.2 |
| 20260507182014 | 71 | 46 | 10.0 | 16.0 | 0.00 | 0.00 | 0.00 | 77 | 1014.1 |
| 20260507181513 | 70 | 42 | 9.0 | 15.0 | 0.00 | 0.00 | 0.00 | 77 | 1014.1 |
| 20260507180514 | 70 | 37 | 10.0 | 14.0 | 0.00 | 0.00 | 0.00 | 78 | 1014.3 |
| 20260507175513 | 70 | 30 | 11.0 | 15.0 | 0.00 | 0.00 | 0.00 | 78 | 1014.4 |
| 20260507175013 | 70 | 31 | 10.0 | 16.0 | 0.00 | 0.00 | 0.00 | 78 | 1014.5 |
| 20260507174516 | 70 | 13 | 10.0 | 15.0 | 0.00 | 0.00 | 0.00 | 79 | 1014.5 |
| 20260507174014 | 69 | 15 | 12.0 | 16.0 | 0.00 | 0.00 | 0.00 | 79 | 1014.5 |
| 20260507173514 | 70 | 43 | 9.0 | 17.0 | 0.00 | 0.00 | 0.00 | 79 | 1014.6 |
| 20260507173015 | 70 | 21 | 9.0 | 16.0 | 0.00 | 0.00 | 0.00 | 80 | 1014.6 |
| 20260507171514 | 70 | 27 | 12.0 | 18.0 | 0.00 | 0.00 | 0.00 | 78 | 1014.4 |
| 20260507171014 | 70 | 21 | 12.0 | 17.0 | 0.00 | 0.00 | 0.00 | 77 | 1014.4 |
| 20260507170515 | 70 | 32 | 10.0 | 15.0 | 0.00 | 0.00 | 0.00 | 78 | 1014.4 |
| 20260507170014 | 70 | 29 | 9.0 | 16.0 | 0.00 | 0.00 | 0.00 | 78 | 1014.5 |
| 20260507165513 | 70 | 36 | 12.0 | 17.0 | 0.00 | 0.00 | 0.00 | 78 | 1014.5 |
| 20260507165015 | 70 | 13 | 12.0 | 17.0 | 0.00 | 0.00 | 0.00 | 79 | 1014.4 |
| 20260507164514 | 70 | 21 | 12.0 | 17.0 | 0.00 | 0.00 | 0.00 | 79 | 1014.4 |
| 20260507164014 | 70 | 18 | 11.0 | 14.0 | 0.00 | 0.00 | 0.00 | 79 | 1014.4 |
| 20260507163514 | 69 | 3 | 12.0 | 16.0 | 0.00 | 0.00 | 0.00 | 79 | 1014.4 |
| 20260507163014 | 69 | 11 | 13.0 | 20.0 | 0.00 | 0.00 | 0.00 | 79 | 1014.4 |
| 20260507162514 | 69 | 16 | 12.0 | 15.0 | 0.00 | 0.00 | 0.00 | 80 | 1014.4 |
| 20260507162014 | 70 | 37 | 11.0 | 16.0 | 0.00 | 0.00 | 0.00 | 78 | 1014.4 |
| 20260507161517 | 70 | 14 | 10.0 | 16.0 | 0.00 | 0.00 | 0.00 | 78 | 1014.2 |
| 20260507161014 | 70 | 18 | 12.0 | 15.0 | 0.00 | 0.00 | 0.00 | 78 | 1014.2 |
| 20260507160514 | 69 | 18 | 12.0 | 17.0 | 0.00 | 0.00 | 0.00 | 79 | 1014.2 |
| 20260507155513 | 69 | 22 | 10.0 | 14.0 | 0.00 | 0.00 | 0.00 | 80 | 1014.2 |
| 20260507155014 | 69 | 8 | 12.0 | 16.0 | 0.00 | 0.00 | 0.00 | 80 | 1014.2 |
| 20260507154513 | 69 | 17 | 12.0 | 14.0 | 0.00 | 0.00 | 0.00 | 80 | 1014.3 |
| 20260507154014 | 69 | 10 | 10.0 | 14.0 | 0.00 | 0.00 | 0.00 | 80 | 1014.3 |
| 20260507153516 | 69 | 19 | 9.0 | 16.0 | 0.00 | 0.00 | 0.00 | 80 | 1014.2 |
| 20260507153014 | 69 | 28 | 9.0 | 14.0 | 0.00 | 0.00 | 0.00 | 81 | 1014.1 |
| 20260507152513 | 69 | 23 | 12.0 | 15.0 | 0.00 | 0.00 | 0.00 | 81 | 1014.2 |
| 20260507151514 | 69 | 26 | 10.0 | 15.0 | 0.00 | 0.00 | 0.00 | 81 | 1014.1 |
| 20260507151013 | 69 | 19 | 9.0 | 14.0 | 0.00 | 0.00 | 0.00 | 81 | 1014.1 |
| 20260507150013 | 69 | 16 | 9.0 | 13.0 | 0.00 | 0.00 | 0.00 | 81 | 1014.1 |
| 20260507145513 | 69 | 15 | 10.0 | 13.0 | 0.00 | 0.00 | 0.00 | 81 | 1014.1 |
| 20260507145014 | 68 | 31 | 9.0 | 14.0 | 0.00 | 0.00 | 0.00 | 81 | 1014.0 |
| 20260507144513 | 68 | 32 | 7.0 | 13.0 | 0.00 | 0.00 | 0.00 | 82 | 1013.9 |
| 20260507144014 | 68 | 55 | 10.0 | 14.0 | 0.00 | 0.00 | 0.00 | 81 | 1013.9 |
| 20260507143514 | 68 | 40 | 7.0 | 13.0 | 0.00 | 0.00 | 0.00 | 82 | 1013.9 |
| 20260507143014 | 68 | 49 | 7.0 | 12.0 | 0.00 | 0.00 | 0.00 | 81 | 1013.8 |
| 20260507142514 | 68 | 32 | 8.0 | 14.0 | 0.00 | 0.00 | 0.00 | 81 | 1013.8 |
| 20260507142014 | 68 | 35 | 8.0 | 14.0 | 0.00 | 0.00 | 0.00 | 81 | 1013.7 |
| 20260507141514 | 68 | 37 | 7.0 | 10.0 | 0.00 | 0.00 | 0.00 | 81 | 1013.6 |
| 20260507140514 | 68 | 15 | 10.0 | 15.0 | 0.00 | 0.00 | 0.00 | 81 | 1013.6 |
| 20260507140013 | 68 | 23 | 7.0 | 10.0 | 0.00 | 0.00 | 0.00 | 81 | 1013.6 |
| 20260507135514 | 68 | 24 | 11.0 | 16.0 | 0.00 | 0.00 | 0.00 | 81 | 1013.3 |
| 20260507135014 | 68 | 22 | 10.0 | 15.0 | 0.00 | 0.00 | 0.00 | 81 | 1013.4 |
| 20260507134513 | 68 | 13 | 13.0 | 16.0 | 0.00 | 0.00 | 0.00 | 81 | 1013.5 |
| 20260507134014 | 68 | 11 | 12.0 | 16.0 | 0.00 | 0.00 | 0.00 | 81 | 1013.4 |
| 20260507133514 | 68 | 17 | 10.0 | 14.0 | 0.00 | 0.00 | 0.00 | 81 | 1013.2 |
| 20260507133014 | 68 | 22 | 10.0 | 14.0 | 0.00 | 0.00 | 0.00 | 81 | 1013.2 |
| 20260507132513 | 68 | 16 | 12.0 | 16.0 | 0.00 | 0.00 | 0.00 | 81 | 1013.1 |
| 20260507132013 | 68 | 4 | 10.0 | 14.0 | 0.00 | 0.00 | 0.00 | 81 | 1013.1 |
| 20260507131014 | 68 | 10 | 10.0 | 16.0 | 0.00 | 0.00 | 0.00 | 81 | 1012.9 |
| 20260507130516 | 68 | 12 | 12.0 | 15.0 | 0.00 | 0.00 | 0.00 | 81 | 1012.8 |
| 20260507130015 | 68 | 26 | 9.0 | 13.0 | 0.00 | 0.00 | 0.00 | 81 | 1012.8 |
| 20260507125515 | 68 | 22 | 10.0 | 15.0 | 0.00 | 0.00 | 0.00 | 81 | 1012.7 |
| 20260507124014 | 68 | 23 | 10.0 | 15.0 | 0.00 | 0.00 | 0.00 | 81 | 1012.4 |
| 20260507123514 | 68 | 5 | 10.0 | 15.0 | 0.00 | 0.00 | 0.00 | 81 | 1012.4 |
| 20260507122014 | 68 | 22 | 9.0 | 13.0 | 0.00 | 0.00 | 0.00 | 81 | 1012.0 |
| 20260507121512 | 68 | 21 | 9.0 | 14.0 | 0.00 | 0.00 | 0.00 | 81 | 1012.0 |
| 20260507120014 | 68 | 22 | 6.0 | 10.0 | 0.00 | 0.00 | 0.00 | 81 | 1012.0 |
| 20260507115514 | 68 | 28 | 8.0 | 13.0 | 0.00 | 0.00 | 0.00 | 81 | 1011.8 |
| 20260507115014 | 68 | 27 | 10.0 | 16.0 | 0.00 | 0.00 | 0.00 | 81 | 1011.7 |
| 20260507114513 | 68 | 25 | 9.0 | 16.0 | 0.00 | 0.00 | 0.00 | 81 | 1011.7 |
| 20260507114013 | 68 | 29 | 9.0 | 13.0 | 0.00 | 0.00 | 0.00 | 81 | 1011.7 |
| 20260507113514 | 68 | 27 | 10.0 | 14.0 | 0.00 | 0.00 | 0.00 | 81 | 1011.7 |
| 20260507113015 | 68 | 41 | 7.0 | 14.0 | 0.00 | 0.00 | 0.00 | 81 | 1011.3 |
| 20260507111513 | 69 | 16 | 8.0 | 10.0 | 0.00 | 0.00 | 0.00 | 81 | 1011.8 |
| 20260507111014 | 69 | 21 | 9.0 | 14.0 | 0.00 | 0.00 | 0.00 | 81 | 1011.8 |
| 20260507110513 | 69 | 6 | 9.0 | 13.0 | 0.00 | 0.00 | 0.00 | 81 | 1011.7 |
| 20260507110013 | 69 | 16 | 10.0 | 14.0 | 0.00 | 0.00 | 0.00 | 81 | 1011.7 |
| 20260507105515 | 69 | 33 | 9.0 | 13.0 | 0.00 | 0.00 | 0.00 | 81 | 1011.5 |
| 20260507105014 | 69 | 42 | 9.0 | 13.0 | 0.00 | 0.00 | 0.00 | 81 | 1011.4 |
| 20260507104513 | 69 | 55 | 10.0 | 14.0 | 0.00 | 0.00 | 0.00 | 81 | 1011.4 |
| 20260507104016 | 69 | 49 | 8.0 | 12.0 | 0.00 | 0.00 | 0.00 | 81 | 1011.5 |
| 20260507103513 | 69 | 50 | 7.0 | 10.0 | 0.00 | 0.00 | 0.00 | 81 | 1011.7 |
| 20260507103013 | 69 | 29 | 7.0 | 10.0 | 0.00 | 0.00 | 0.00 | 81 | 1011.8 |
| 20260507102513 | 69 | 33 | 8.0 | 12.0 | 0.00 | 0.00 | 0.00 | 81 | 1011.9 |
| 20260507101513 | 69 | 8 | 7.0 | 10.0 | 0.00 | 0.00 | 0.00 | 81 | 1012.1 |
| 20260507100513 | 69 | 32 | 7.0 | 13.0 | 0.00 | 0.00 | 0.00 | 81 | 1011.7 |
| 20260507100013 | 69 | 31 | 8.0 | 12.0 | 0.00 | 0.00 | 0.00 | 81 | 1011.3 |
| 20260507095513 | 69 | 30 | 7.0 | 9.0 | 0.00 | 0.00 | 0.00 | 81 | 1011.3 |
| 20260507095014 | 69 | 29 | 6.0 | 12.0 | 0.00 | 0.00 | 0.00 | 81 | 1011.3 |
| 20260507094513 | 69 | 24 | 9.0 | 14.0 | 0.00 | 0.00 | 0.00 | 81 | 1011.1 |
| 20260507094019 | 69 | 19 | 8.0 | 10.0 | 0.00 | 0.00 | 0.00 | 81 | 1011.1 |
| 20260507093014 | 69 | 22 | 8.0 | 12.0 | 0.00 | 0.00 | 0.00 | 81 | 1010.9 |
| 20260507092513 | 69 | 20 | 8.0 | 12.0 | 0.00 | 0.00 | 0.00 | 81 | 1011.0 |
| 20260507092016 | 69 | 13 | 8.0 | 12.0 | 0.00 | 0.00 | 0.00 | 81 | 1011.1 |
| 20260507091514 | 70 | 17 | 8.0 | 14.0 | 0.00 | 0.00 | 0.00 | 81 | 1011.3 |
| 20260507091016 | 70 | 11 | 7.0 | 12.0 | 0.00 | 0.00 | 0.00 | 81 | 1011.3 |
| 20260507090514 | 70 | 18 | 8.0 | 12.0 | 0.00 | 0.00 | 0.00 | 81 | 1011.3 |
| 20260507084513 | 70 | 15 | 7.0 | 10.0 | 0.00 | 0.00 | 0.00 | 81 | 1011.3 |
| 20260507084014 | 70 | 17 | 10.0 | 15.0 | 0.00 | 0.00 | 0.00 | 81 | 1011.1 |
| 20260507083514 | 70 | 12 | 10.0 | 14.0 | 0.00 | 0.00 | 0.00 | 81 | 1011.1 |
| 20260507083013 | 70 | 10 | 9.0 | 14.0 | 0.00 | 0.00 | 0.00 | 81 | 1011.1 |
| 20260507082014 | 71 | 20 | 7.0 | 10.0 | 0.00 | 0.00 | 0.00 | 81 | 1010.9 |
| 20260507081015 | 70 | 21 | 9.0 | 13.0 | 0.00 | 0.00 | 0.00 | 81 | 1010.8 |
| 20260507080014 | 70 | 19 | 11.0 | 15.0 | 0.00 | 0.00 | 0.00 | 81 | 1010.8 |
| 20260507075518 | 70 | 31 | 10.0 | 14.0 | 0.00 | 0.00 | 0.00 | 81 | 1010.9 |